DLH952 EDDF-EGBB

Flight info

Callsign DLH952
Flight time N/A
Altitude 34000
Route OBOKA2E/07C OBOKA Z29 TORNU DCT GALSO Q63 ERING L179 LAM L610 HEMEL
Aircraft A21N/M-SDE2E3FGHIRWXY/LB1

Departure

Time 2026-04-15 09:54
Airport Frankfurt Main Airport (EDDF)

Arrival

Time N/A
Airport Birmingham Airport (EGBB)
Time Latitude Longitude Altitude Speed Heading
2026-04-15 09:33 50.04714 8.57625 361 ft 0 kts 25°
2026-04-15 09:43 50.04706 8.57619 361 ft 4 kts 25°
2026-04-15 09:44 50.04682 8.57601 364 ft 4 kts 25°
2026-04-15 09:44 50.04672 8.57595 362 ft 3 kts 32°
2026-04-15 09:44 50.04666 8.57610 363 ft 4 kts 118°
2026-04-15 09:44 50.04647 8.57637 365 ft 4 kts 143°
2026-04-15 09:45 50.04643 8.57637 366 ft 4 kts 88°
2026-04-15 09:45 50.04652 8.57666 365 ft 1 kts 250°
2026-04-15 09:47 50.04651 8.57665 365 ft 1 kts 250°
2026-04-15 09:48 50.04641 8.57619 368 ft 8 kts 250°
2026-04-15 09:48 50.04620 8.57533 363 ft 4 kts 248°
2026-04-15 09:48 50.04578 8.57506 365 ft 12 kts 169°
2026-04-15 09:48 50.04488 8.57566 367 ft 15 kts 167°
2026-04-15 09:49 50.04411 8.57468 372 ft 17 kts 251°
2026-04-15 09:49 50.04368 8.57287 368 ft 19 kts 250°
2026-04-15 09:49 50.04321 8.57088 368 ft 20 kts 250°
2026-04-15 09:49 50.04271 8.56881 365 ft 21 kts 250°
2026-04-15 09:50 50.04219 8.56661 363 ft 22 kts 249°
2026-04-15 09:50 50.04164 8.56431 361 ft 23 kts 249°
2026-04-15 09:50 50.04124 8.56265 364 ft 16 kts 249°
2026-04-15 09:50 50.04083 8.56094 358 ft 17 kts 250°
2026-04-15 09:51 50.04040 8.55911 356 ft 19 kts 249°
2026-04-15 09:51 50.03993 8.55716 359 ft 20 kts 250°
2026-04-15 09:51 50.03943 8.55509 355 ft 21 kts 250°
2026-04-15 09:51 50.03893 8.55295 363 ft 22 kts 250°
2026-04-15 09:52 50.03838 8.55070 354 ft 22 kts 250°
2026-04-15 09:52 50.03800 8.54907 356 ft 10 kts 250°
2026-04-15 09:52 50.03773 8.54794 356 ft 12 kts 249°
2026-04-15 09:52 50.03712 8.54708 355 ft 13 kts 186°
2026-04-15 09:53 50.03620 8.54750 354 ft 15 kts 155°
2026-04-15 09:53 50.03597 8.54867 358 ft 0 kts 70°
2026-04-15 09:53 50.03629 8.54997 353 ft 43 kts 69°
2026-04-15 09:54 50.03827 8.55832 361 ft 119 kts 69°
2026-04-15 09:54 50.04197 8.57368 391 ft 184 kts 69°
2026-04-15 09:54 50.04675 8.59389 1102 ft 212 kts 70°
2026-04-15 09:54 50.05260 8.61609 2097 ft 227 kts 59°
2026-04-15 09:55 50.06317 8.63276 3321 ft 219 kts 29°
2026-04-15 09:55 50.07807 8.63857 4200 ft 226 kts
2026-04-15 09:55 50.09397 8.63705 5216 ft 231 kts 356°
2026-04-15 09:55 50.11040 8.63504 6174 ft 250 kts 356°
2026-04-15 09:56 50.12899 8.63320 6874 ft 282 kts 356°
2026-04-15 09:56 50.14915 8.63147 7994 ft 297 kts 356°
2026-04-15 09:56 50.18916 8.60858 10322 ft 327 kts 314°
2026-04-15 09:57 50.20396 8.57970 11052 ft 359 kts 303°
2026-04-15 09:57 50.21805 8.54594 12072 ft 382 kts 302°
2026-04-15 09:57 50.23308 8.51033 13251 ft 403 kts 303°
2026-04-15 09:57 50.24894 8.47361 14407 ft 422 kts 303°
2026-04-15 09:58 50.26579 8.43555 15569 ft 421 kts 304°
2026-04-15 09:58 50.28225 8.39908 16715 ft 408 kts 305°
2026-04-15 09:58 50.29834 8.36305 17899 ft 405 kts 304°
2026-04-15 09:58 50.31451 8.32650 19076 ft 412 kts 304°
2026-04-15 09:59 50.33084 8.28918 20083 ft 418 kts 304°
2026-04-15 09:59 50.34739 8.25135 21047 ft 425 kts 304°
2026-04-15 09:59 50.36427 8.21293 21997 ft 430 kts 304°
2026-04-15 09:59 50.38136 8.17402 22938 ft 436 kts 304°
2026-04-15 10:00 50.39866 8.13457 23858 ft 443 kts 304°
2026-04-15 10:00 50.41624 8.09461 24612 ft 447 kts 304°
2026-04-15 10:00 50.43396 8.05423 25350 ft 451 kts 305°
2026-04-15 10:00 50.45179 8.01361 26056 ft 452 kts 305°
2026-04-15 10:01 50.46964 7.97289 26722 ft 456 kts 305°
2026-04-15 10:01 50.48769 7.93167 27345 ft 460 kts 305°
2026-04-15 10:01 50.50570 7.89040 27899 ft 463 kts 305°
2026-04-15 10:01 50.52390 7.84872 28416 ft 462 kts 305°
2026-04-15 10:02 50.54215 7.80725 28906 ft 461 kts 306°
2026-04-15 10:02 50.56034 7.76576 29279 ft 461 kts 305°
2026-04-15 10:02 50.57840 7.72376 29326 ft 467 kts 305°
2026-04-15 10:03 50.61541 7.63800 29318 ft 480 kts 305°
2026-04-15 10:03 50.65414 7.55059 29331 ft 494 kts 306°
2026-04-15 10:04 50.69622 7.46334 29327 ft 506 kts 310°
2026-04-15 10:04 50.74587 7.38242 29336 ft 520 kts 316°
2026-04-15 10:04 50.76995 7.33952 29339 ft 526 kts 305°
2026-04-15 10:05 50.78480 7.29302 29341 ft 534 kts 290°
2026-04-15 10:05 50.80593 7.17872 29179 ft 554 kts 284°
2026-04-15 10:05 50.81376 7.11678 29107 ft 594 kts 283°
2026-04-15 10:06 50.82638 7.05399 28634 ft 607 kts 295°
2026-04-15 10:06 50.84911 6.99626 26450 ft 640 kts 308°
2026-04-15 10:06 50.88508 6.95237 21763 ft 704 kts 341°
2026-04-15 10:06 50.89477 6.97153 6808 ft 571 kts 143°
2026-04-15 10:07 50.88331 6.98343 516 ft 38 kts 106°
2026-04-15 10:07 50.88482 6.98324 314 ft 78 kts